Date String (YYYY-MM-DD hh:mm:ss) UTC,Instrument flags,Ambient pressure (hPa),Sample flow (lpm),Bypass flow (lpm),Sample temperature (°C),Ambient temperature (°C),ASC tube jacket temperature (°C),LED temperature (°C),Box temperature (°C),Sample RH (%),Span deviation,Mass concentration (μg/m³),Mass concentration (μg/m³),Mass concentration (μg/m³)
DateTimeUTC,F1_M11,P_M11,Q1_M11,Q2_M11,T1_M11,T2_M11,T3_M11,T4_M11,T5_M11,U1_M11,ZSPAN_M11,X2_M11,X0_M11,X1_M11
2022-12-04 19:00:00,,0823.7,4.99,0.00,25.3,24.2,00.0,34.0,27.1,13.3,0004.2,0007.64,0014.49,0006.54
2022-12-04 19:01:00,,0823.7,4.99,0.00,25.3,24.3,00.0,34.0,27.1,13.4,0004.2,0007.55,0014.28,0006.52
2022-12-04 19:02:00,,0823.6,4.99,0.00,25.3,24.3,00.0,34.1,27.2,13.5,0002.1,0007.45,0014.17,0006.50
2022-12-04 19:03:00,,0823.7,5.01,0.00,25.3,24.3,00.0,34.1,27.2,13.4,0000.0,0007.47,0014.28,0006.49
2022-12-04 19:04:00,,0823.6,5.00,0.00,25.3,24.3,00.0,34.1,27.2,13.4,0000.0,0007.45,0014.35,0006.47
2022-12-04 19:05:00,,0823.6,5.00,0.00,25.3,24.3,00.0,34.1,27.2,13.2,0000.0,0007.46,0014.84,0006.47
2022-12-04 19:06:00,,0823.6,5.00,0.00,25.4,24.3,00.0,34.1,27.3,13.4,0000.0,0007.49,0015.17,0006.48
2022-12-04 19:07:00,,0823.4,5.00,0.00,25.4,24.3,00.0,34.1,27.3,13.3,0000.0,0007.51,0015.63,0006.51
2022-12-04 19:08:00,,0823.4,5.00,0.00,25.4,24.4,00.0,34.2,27.3,13.2,0000.3,0007.50,0015.76,0006.51
2022-12-04 19:09:00,,0823.4,5.00,0.00,25.4,24.4,00.0,34.2,27.2,13.1,0000.0,0007.50,0015.70,0006.50
2022-12-04 19:10:00,,0823.6,5.00,0.00,25.4,24.4,00.0,34.2,27.2,13.1,0000.0,0007.45,0014.65,0006.48
2022-12-04 19:11:00,,0823.6,5.00,0.00,25.4,24.5,00.0,34.2,27.3,13.2,0000.0,0007.43,0015.06,0006.47
2022-12-04 19:12:00,,0823.7,5.00,0.00,25.5,24.5,00.0,34.2,27.3,13.4,0000.0,0007.47,0015.86,0006.47
2022-12-04 19:13:00,,0823.6,5.00,0.00,25.5,24.5,00.0,34.2,27.4,13.3,0000.4,0007.54,0016.13,0006.48
2022-12-04 19:14:00,,0823.6,5.00,0.00,25.5,24.5,00.0,34.3,27.4,13.4,0001.4,0007.57,0016.28,0006.50
2022-12-04 19:15:00,,0823.4,5.00,0.00,25.5,24.6,00.0,34.3,27.4,13.4,0000.6,0007.57,0016.11,0006.51
2022-12-04 19:16:00,,0823.4,4.99,0.00,25.6,24.6,00.0,34.3,27.5,13.4,-000.6,0007.63,0015.86,0006.54
2022-12-04 19:17:00,,0823.3,4.99,0.00,25.6,24.6,00.0,34.3,27.5,13.5,-001.5,0007.67,0015.45,0006.56
2022-12-04 19:18:00,,0823.2,4.99,0.00,25.6,24.6,00.0,34.3,27.5,13.4,-001.8,0007.68,0015.03,0006.56
2022-12-04 19:19:00,,0823.2,5.01,0.00,25.6,24.6,00.0,34.4,27.5,13.3,-002.3,0007.70,0014.53,0006.57
2022-12-04 19:20:00,,0823.2,5.01,0.00,25.6,24.6,00.0,34.4,27.5,13.2,-002.0,0007.69,0014.57,0006.58
2022-12-04 19:21:00,,0823.2,5.01,0.00,25.6,24.6,00.0,34.4,27.5,13.3,-001.7,0007.73,0015.06,0006.59
2022-12-04 19:22:00,,0823.2,5.00,0.00,25.7,24.6,00.0,34.4,27.6,13.1,-001.7,0007.84,0014.73,0006.63
2022-12-04 19:23:00,,0823.2,5.00,0.00,25.7,24.7,00.0,34.4,27.6,13.2,-001.4,0007.85,0013.89,0006.65
2022-12-04 19:24:00,,0823.1,5.00,0.00,25.7,24.6,00.0,34.5,27.6,13.0,-001.7,0007.80,0013.57,0006.62
2022-12-04 19:25:00,,0823.1,5.00,0.00,25.7,24.6,00.0,34.5,27.6,12.8,-001.9,0007.66,0013.36,0006.57
2022-12-04 19:26:00,,0823.1,4.99,0.00,25.7,24.7,00.0,34.5,27.6,12.9,-001.6,0007.59,0013.83,0006.52
2022-12-04 19:27:00,,0823.1,4.99,0.00,25.7,24.7,00.0,34.5,27.6,13.0,-001.4,0007.52,0014.15,0006.46
2022-12-04 19:28:00,,0823.1,5.00,0.00,25.7,24.7,00.0,34.5,27.6,12.8,-000.9,0007.43,0014.26,0006.42
2022-12-04 19:29:00,,0823.1,5.01,0.00,25.8,24.8,00.0,34.5,27.6,12.9,-000.5,0007.40,0014.80,0006.38
2022-12-04 19:30:00,,0823.0,5.01,0.00,25.8,24.8,00.0,34.5,27.7,12.7,0000.8,0007.34,0014.94,0006.35
2022-12-04 19:31:00,,0822.9,5.00,0.00,25.8,24.8,00.0,34.6,27.7,12.7,0000.1,0007.29,0014.98,0006.32
2022-12-04 19:32:00,,0823.0,4.99,0.00,25.8,24.8,00.0,34.6,27.7,12.8,0000.0,0007.30,0015.09,0006.31
2022-12-04 19:33:00,,0822.9,4.99,0.00,25.8,24.9,00.0,34.6,27.7,12.8,0000.0,0007.24,0015.20,0006.29
2022-12-04 19:34:00,,0822.8,5.00,0.00,25.8,24.9,00.0,34.6,27.7,12.9,0000.0,0007.17,0015.77,0006.26
2022-12-04 19:35:00,,0822.7,5.00,0.00,25.9,24.9,00.0,34.6,27.7,12.9,0000.0,0007.19,0015.74,0006.27
2022-12-04 19:36:00,,0822.7,5.01,0.00,25.9,24.9,00.0,34.7,27.8,13.0,0000.0,0007.21,0015.65,0006.31
2022-12-04 19:37:00,,0822.7,5.01,0.00,25.9,25.0,00.0,34.7,27.9,12.8,0000.0,0007.27,0015.18,0006.36
2022-12-04 19:38:00,,0822.7,4.99,0.00,26.0,25.0,00.0,34.7,27.9,12.8,0000.0,0007.28,0015.21,0006.38
2022-12-04 19:39:00,,0822.7,5.00,0.00,26.0,25.0,00.0,34.7,27.9,12.7,0000.0,0007.30,0014.67,0006.40
2022-12-04 19:40:00,,0822.7,5.00,0.00,26.0,25.0,00.0,34.7,27.9,12.7,0000.0,0007.31,0014.01,0006.42
2022-12-04 19:41:00,,0822.8,4.99,0.00,26.0,25.0,00.0,34.7,27.9,12.7,0001.6,0007.39,0013.76,0006.45
2022-12-04 19:42:00,,0822.8,5.01,0.00,26.0,25.0,00.0,34.7,27.9,12.8,0000.0,0007.42,0013.70,0006.48
2022-12-04 19:43:00,,0822.8,5.01,0.00,26.0,25.0,00.0,34.8,27.9,12.8,0000.0,0007.39,0012.95,0006.47
2022-12-04 19:44:00,,0822.8,5.00,0.00,26.0,25.0,00.0,34.8,27.9,12.8,0000.0,0007.32,0012.56,0006.44
2022-12-04 19:45:00,,0822.7,4.99,0.00,26.1,25.1,00.0,34.8,27.9,13.0,0000.0,0007.29,0011.67,0006.43
2022-12-04 19:46:00,,0822.7,5.00,0.00,26.1,25.1,00.0,34.8,28.0,12.9,0000.0,0007.29,0011.65,0006.42
2022-12-04 19:47:00,,0822.6,5.00,0.00,26.1,25.1,00.0,34.8,28.0,12.9,0000.0,0007.31,0011.74,0006.41
2022-12-04 19:48:00,,0822.6,5.00,0.00,26.1,25.1,00.0,34.9,28.0,12.8,0000.0,0007.28,0011.61,0006.38
2022-12-04 19:49:00,,0822.6,5.00,0.00,26.1,25.2,00.0,34.9,28.0,12.7,0000.0,0007.26,0011.38,0006.35
2022-12-04 19:50:00,,0822.6,5.00,0.00,26.2,25.2,00.0,34.9,28.1,12.6,0000.0,0007.22,0011.35,0006.33
2022-12-04 19:51:00,,0822.5,5.00,0.00,26.2,25.2,00.0,34.9,28.1,12.7,0000.0,0007.18,0011.24,0006.31
2022-12-04 19:52:00,,0822.6,5.00,0.00,26.2,25.2,00.0,34.9,28.1,12.8,0000.0,0007.11,0011.45,0006.28
2022-12-04 19:53:00,,0822.6,5.00,0.00,26.2,25.2,00.0,35.0,28.1,12.7,0000.0,0007.07,0011.72,0006.26
2022-12-04 19:54:00,,0822.6,5.00,0.00,26.2,25.2,00.0,35.0,28.1,12.7,0000.0,0007.10,0012.01,0006.24
2022-12-04 19:55:00,,0822.5,5.00,0.00,26.2,25.2,00.0,35.0,28.1,12.7,0000.3,0007.16,0012.16,0006.27
2022-12-04 19:56:00,,0822.4,5.01,0.00,26.2,25.2,00.0,35.0,28.2,12.7,0000.6,0007.24,0012.46,0006.29
2022-12-04 19:57:00,,0822.4,5.00,0.00,26.2,25.2,00.0,35.0,28.1,12.8,0000.7,0007.24,0012.89,0006.30
2022-12-04 19:58:00,,0822.4,5.00,0.00,26.2,25.2,00.0,35.0,28.2,12.8,0000.7,0007.23,0013.02,0006.30
2022-12-04 19:59:00,,0822.3,5.00,0.00,26.3,25.2,00.0,35.0,28.2,12.7,0000.3,0007.28,0013.60,0006.33
